DW8293 Weather Reports


time (UTC)temp
C
wind
direction
speed
KPH
gust
KPH
rain 1hr
cm
rain 24hr
cm
rain mn
cm
humidity
%
barometer
mb
20260507102705 13 318 3.2 29.0 0.00 0.00 0.00 31 1011.5
20260507101805 12 338 12.9 29.0 0.00 0.00 0.00 33 1011.5
20260507100903 12 74 1.6 9.7 0.00 0.00 0.00 32 1011.3
20260507100004 13 346 1.6 11.3 0.00 0.00 0.00 33 1011.6
20260507095403 13 356 4.8 11.3 0.00 0.00 0.00 34 1011.4
20260507094504 14 152 1.6 6.4 0.00 0.00 0.00 34 1011.3
20260507093603 12 158 3.2 11.3 0.00 0.00 0.00 36 1011.3
20260507092703 12 152 6.4 6.4 0.00 0.00 0.00 38 1011.3
20260507091805 12 28 3.2 9.7 0.00 0.00 0.00 42 1011.2
20260507090905 11 19 3.2 6.4 0.00 0.00 0.00 43 1011.3
20260507090006 12 53 1.6 9.7 0.00 0.00 0.00 44 1011.2
20260507085403 12 83 3.2 6.4 0.00 0.00 0.00 44 1011.1
20260507084503 11 85 3.2 11.3 0.00 0.00 0.00 47 1011.2
20260507083624 11 99 8.0 11.3 0.00 0.00 0.00 49 1011.2
20260507082703 10 113 3.2 9.7 0.00 0.00 0.00 50 1011.2
20260507081824 11 114 1.6 9.7 0.00 0.00 0.00 48 1011.1
20260507080907 10 95 6.4 9.7 0.00 0.00 0.00 50 1011.0
20260507080025 10 94 3.2 6.4 0.00 0.00 0.00 50 1011.0
20260507075403 10 20 3.2 6.4 0.00 0.00 0.00 49 1010.9
20260507074505 10 42 3.2 6.4 0.00 0.00 0.00 49 1010.7
20260507073624 10 85 3.2 6.4 0.00 0.00 0.00 49 1011.1
20260507072703 10 91 1.6 6.4 0.00 0.00 0.00 50 1010.7
20260507071803 8 74 3.2 6.4 0.00 0.00 0.00 52 1010.7
20260507070905 8 73 1.6 6.4 0.00 0.00 0.00 52 1010.9
20260507070006 8 90 3.2 6.4 0.00 0.00 0.00 54 1010.7
20260507065403 8 90 3.2 6.4 0.00 0.00 0.00 56 1010.5
20260507064507 8 88 4.8 6.4 0.00 0.00 0.00 56 1010.7
20260507063603 7 88 1.6 6.4 0.00 0.00 0.00 58 1010.7
20260507062703 7 90 3.2 6.4 0.00 0.00 0.00 61 1010.5
20260507061805 6 90 3.2 6.4 0.00 0.00 0.00 64 1010.4
20260507060926 6 90 3.2 6.4 0.00 0.00 0.00 65 1010.5
20260507060005 6 90 3.2 6.4 0.00 0.00 0.00 64 1010.5
20260507055403 6 90 0.0 6.4 0.00 0.00 0.00 64 1010.7
20260507054524 6 102 1.6 6.4 0.00 0.00 0.00 63 1010.4
20260507053603 5 102 0.0 6.4 0.00 0.00 0.00 68 1010.4
20260507052705 5 94 1.6 6.4 0.00 0.00 0.00 67 1010.3
20260507051804 5 100 3.2 6.4 0.00 0.00 0.00 67 1010.3
20260507050903 5 110 3.2 3.2 0.00 0.00 0.00 67 1010.2
20260507050003 3 112 1.6 6.4 0.00 0.00 0.00 70 1010.3
20260507045405 3 115 1.6 6.4 0.00 0.00 0.00 70 1010.2
20260507044503 3 122 3.2 6.4 0.00 0.00 0.00 71 1010.2
20260507043605 3 112 1.6 3.2 0.00 0.00 0.00 72 1010.1
20260507042703 3 112 0.0 3.2 0.00 0.00 0.00 72 1009.9
20260507041803 3 135 0.0 3.2 0.00 0.00 0.00 70 1010.0
20260507040903 3 132 1.6 3.2 0.00 0.00 0.00 70 1009.8
20260507040004 3 75 1.6 3.2 0.00 0.00 0.00 70 1009.7
20260507035403 3 45 0.0 3.2 0.00 0.00 0.00 70 1009.8
20260507034503 3 0 0.0 0.0 0.00 0.00 0.00 71 1009.7
20260507033603 3 0 0.0 0.0 0.00 0.00 0.00 71 1009.7
20260507032705 3 45 0.0 3.2 0.00 0.00 0.00 72 1009.7
20260507031803 2 0 0.0 0.0 0.00 0.00 0.00 72 1009.6
20260507030924 2 0 0.0 0.0 0.00 0.00 0.00 71 1009.7
20260507030005 3 0 0.0 0.0 0.00 0.00 0.00 70 1009.6
20260507025404 3 45 0.0 3.2 0.00 0.00 0.00 71 1009.6
20260507024503 2 0 0.0 0.0 0.00 0.00 0.00 71 1009.7
20260507023603 3 0 0.0 0.0 0.00 0.00 0.00 70 1009.6
20260507022703 3 0 0.0 0.0 0.00 0.00 0.00 70 1009.6
20260507021803 2 0 0.0 0.0 0.00 0.00 0.00 70 1009.6
20260507020905 2 0 0.0 0.0 0.00 0.00 0.00 70 1009.6
20260507020003 2 45 0.0 3.2 0.00 0.00 0.00 69 1009.4
20260507015404 2 50 0.0 6.4 0.00 0.00 0.00 69 1009.6
20260507014503 2 67 1.6 3.2 0.00 0.00 0.00 70 1009.4
20260507013603 2 90 0.0 3.2 0.00 0.00 0.00 71 1009.3
20260507012703 2 80 0.0 3.2 0.00 0.00 0.00 70 1009.5
20260507011804 2 90 1.6 3.2 0.00 0.00 0.00 68 1009.5
20260507010903 2 90 0.0 3.2 0.00 0.00 0.00 68 1009.3
20260507010003 2 90 3.2 3.2 0.00 0.00 0.00 68 1009.5
20260507005405 2 90 0.0 3.2 0.00 0.00 0.00 69 1009.4
20260507004503 2 90 0.0 3.2 0.00 0.00 0.00 70 1009.2
20260507003603 2 90 0.0 3.2 0.00 0.00 0.00 70 1009.2
20260507002703 2 90 1.6 3.2 0.00 0.00 0.00 69 1009.1
20260507001803 2 90 3.2 3.2 0.00 0.00 0.00 70 1008.9
20260507000903 2 0 0.0 0.0 0.00 0.00 0.00 69 1009.2
20260507000006 2 0 0.0 0.0 0.00 0.00 0.00 68 1009.2
20260506235403 2 90 0.0 3.2 0.00 0.00 0.00 66 1009.0
20260506234503 2 93 1.6 6.4 0.00 0.00 0.00 63 1008.8
20260506233603 3 92 3.2 6.4 0.00 0.00 0.00 61 1008.8
20260506232703 3 103 1.6 6.4 0.00 0.00 0.00 58 1008.7
20260506231803 5 132 3.2 6.4 0.00 0.00 0.00 54 1008.8
20260506230905 5 161 3.2 11.3 0.00 0.00 0.00 52 1008.8
20260506230024 5 166 6.4 11.3 0.00 0.00 0.00 51 1008.5
20260506225405 5 181 4.8 11.3 0.00 0.00 0.00 51 1008.5
20260506224503 5 182 6.4 11.3 0.00 0.00 0.00 51 1008.8
20260506223605 6 180 6.4 17.7 0.00 0.00 0.00 50 1008.4
20260506222703 6 184 8.0 22.5 0.00 0.00 0.00 49 1008.5
20260506221803 6 195 8.0 22.5 0.00 0.00 0.00 48 1008.5
20260506220903 6 200 6.4 17.7 0.00 0.00 0.00 49 1008.6
20260506220004 6 181 8.0 17.7 0.00 0.00 0.00 48 1008.4
20260506215403 6 174 6.4 17.7 0.00 0.00 0.00 48 1008.4
20260506214505 6 186 4.8 14.5 0.00 0.00 0.00 47 1008.4
20260506213603 6 161 6.4 12.9 0.00 0.00 0.00 47 1008.4
20260506212724 7 179 8.0 17.7 0.00 0.00 0.00 46 1008.4
20260506211805 7 162 6.4 14.5 0.00 0.00 0.00 45 1008.3
20260506210903 7 177 8.0 12.9 0.00 0.00 0.00 44 1008.1
20260506210003 7 195 6.4 17.7 0.00 0.00 0.00 44 1008.1
20260506205404 7 189 8.0 24.1 0.00 0.00 0.00 43 1008.1
20260506204503 8 189 9.7 20.9 0.00 0.00 0.00 44 1007.9
20260506203603 8 194 9.7 14.5 0.00 0.00 0.00 43 1007.9
20260506202705 8 156 6.4 17.7 0.00 0.00 0.00 43 1007.9
20260506201803 8 178 4.8 12.9 0.00 0.00 0.00 41 1007.7
20260506200903 9 191 9.7 17.7 0.00 0.00 0.00 39 1007.6
20260506200003 9 195 12.9 17.7 0.00 0.00 0.00 37 1007.4
20260506195403 9 212 8.0 14.5 0.00 0.00 0.00 39 1007.6
20260506194505 9 175 8.0 14.5 0.00 0.00 0.00 39 1007.6
20260506193603 8 159 3.2 9.7 0.00 0.00 0.00 40 1007.8
20260506192724 9 164 3.2 6.4 0.00 0.00 0.00 39 1007.6
20260506191803 9 157 3.2 6.4 0.00 0.00 0.00 38 1007.5
20260506190903 9 135 1.6 6.4 0.00 0.00 0.00 38 1007.4
20260506190003 10 136 3.2 6.4 0.00 0.00 0.00 37 1007.3
20260506185404 10 135 3.2 6.4 0.00 0.00 0.00 37 1007.4
20260506184524 10 135 1.6 3.2 0.00 0.00 0.00 37 1007.2
20260506183603 10 146 3.2 6.4 0.00 0.00 0.00 35 1007.6
20260506182703 11 155 3.2 3.2 0.00 0.00 0.00 34 1007.2
20260506181803 11 169 1.6 6.4 0.00 0.00 0.00 33 1007.0
20260506180903 11 195 3.2 6.4 0.00 0.00 0.00 32 1007.2
20260506180004 11 166 4.8 6.4 0.00 0.00 0.00 33 1007.1
20260506175406 11 160 0.0 6.4 0.00 0.00 0.00 33 1007.1
20260506174524 11 162 4.8 6.4 0.00 0.00 0.00 32 1007.1
20260506173603 11 145 1.6 6.4 0.00 0.00 0.00 33 1007.1
20260506172703 11 134 3.2 6.4 0.00 0.00 0.00 33 1007.3
20260506171805 11 163 3.2 6.4 0.00 0.00 0.00 32 1007.3
20260506170906 11 158 3.2 9.7 0.00 0.00 0.00 33 1007.2
20260506170003 11 152 3.2 9.7 0.00 0.00 0.00 33 1007.2
20260506165403 11 180 3.2 6.4 0.00 0.00 0.00 32 1007.4
20260506164503 11 165 4.8 12.9 0.00 0.00 0.00 32 1007.1
20260506163603 11 205 6.4 11.3 0.00 0.00 0.00 32 1007.0
20260506162724 11 222 4.8 6.4 0.00 0.00 0.00 32 1007.5
20260506161803 11 292 3.2 11.3 0.00 0.00 0.00 31 1007.4
20260506160903 11 226 3.2 17.7 0.00 0.00 0.00 30 1007.2
20260506160004 11 220 6.4 24.1 0.00 0.00 0.00 31 1007.3
20260506155403 12 203 12.9 24.1 0.00 0.00 0.00 30 1007.2
20260506154503 11 193 9.7 17.7 0.00 0.00 0.00 31 1007.5
20260506153603 11 246 8.0 12.9 0.00 0.00 0.00 31 1007.4
20260506152703 12 261 6.4 17.7 0.00 0.00 0.00 30 1007.3
20260506151803 12 241 8.0 17.7 0.00 0.00 0.00 31 1007.4
20260506150926 12 228 8.0 17.7 0.00 0.00 0.00 29 1007.5
20260506150003 13 214 11.3 17.7 0.00 0.00 0.00 30 1007.1
20260506145424 13 159 8.0 14.5 0.00 0.00 0.00 28 1007.4
20260506144526 11 133 4.8 17.7 0.00 0.00 0.00 30 1007.6
20260506143603 12 150 3.2 17.7 0.00 0.00 0.00 31 1007.7
20260506142703 11 188 4.8 9.7 0.00 0.00 0.00 31 1007.8
20260506141803 11 178 3.2 11.3 0.00 0.00 0.00 32 1007.7
20260506140905 12 211 3.2 11.3 0.00 0.00 0.00 31 1008.1
20260506140024 12 190 6.4 11.3 0.00 0.00 0.00 30 1007.8
20260506135404 11 210 3.2 20.9 0.00 0.00 0.00 31 1008.0
20260506134504 12 184 14.5 20.9 0.00 0.00 0.00 30 1007.9
20260506133603 12 185 6.4 27.4 0.00 0.00 0.00 30 1007.8
20260506132703 12 126 14.5 22.5 0.00 0.00 0.00 30 1007.9
20260506131803 12 117 4.8 6.4 0.00 0.00 0.00 28 1007.9
20260506130905 11 235 4.8 12.9 0.00 0.00 0.00 31 1008.1
20260506130004 11 229 9.7 14.5 0.00 0.00 0.00 31 1008.2
20260506125403 11 198 6.4 17.7 0.00 0.00 0.00 31 1008.3
20260506124505 11 249 11.3 22.5 0.00 0.00 0.00 30 1008.1
20260506123624 12 205 11.3 17.7 0.00 0.00 0.00 29 1008.2
20260506122703 11 152 3.2 11.3 0.00 0.00 0.00 31 1008.2
20260506121803 11 180 6.4 17.7 0.00 0.00 0.00 31 1008.3
20260506120905 11 173 8.0 17.7 0.00 0.00 0.00 30 1008.4
20260506120004 11 178 11.3 17.7 0.00 0.00 0.00 30 1008.3
20260506115424 12 165 9.7 17.7 0.00 0.00 0.00 31 1008.4
20260506114524 12 153 4.8 11.3 0.00 0.00 0.00 30 1008.3
20260506113603 11 98 6.4 12.9 0.00 0.00 0.00 32 1008.6
20260506112703 12 195 3.2 14.5 0.00 0.00 0.00 30 1008.6
20260506111803 10 259 11.3 20.9 0.00 0.00 0.00 32 1008.5
20260506110903 11 264 3.2 12.9 0.00 0.00 0.00 30 1008.5
20260506110003 12 244 4.8 11.3 0.00 0.00 0.00 33 1008.6
20260506105403 10 294 6.4 6.4 0.00 0.00 0.00 33 1008.7
20260506104524 11 349 1.6 11.3 0.00 0.00 0.00 32 1008.7
20260506103624 11 312 6.4 14.5 0.00 0.00 0.00 32 1008.7